sat.trackr.live / text

‹ back to catalog

STARLINK-35344

NORAD 65656 · 2025-211E

PAYLOAD ACTIVE UNKNOWN

§ Identity

Operator
Country
US
Launch date
2025-09-19
Launch site
AFWTR
Launch vehicle
Mass (kg)
RCS (m²)

Purposes: comms

External: N2YO · Heavens-Above · Gunter

§ Orbital elements

Epoch: 2026-05-25T01:51:24.719616Z

Period
95.64 min
Inclination
97.4493°
Eccentricity
0.0001377
Mean motion
15.05640955 rev/d
Perigee alt
548.6 km
Apogee alt
550.5 km
Semi-major
6,927.7 km
B*
-1.0356e-4
RAAN
188.9596°
Arg perigee
121.0725°
Mean anomaly
239.0637°
Rev number
3,853

§ Raw data

STARLINK-353441 65656U 25211E   26145.07736944 -.00001552  00000+0 -10356-3 0  99992 65656  97.4493 188.9596 0001377 121.0725 239.0637 15.05640955 38537

JSON: /api/v1/satellites/65656 · /tle

For live sub-satellite position, see the globe view (requires WebGL).

§ Visibility from observer

Set your observer location to see the next 7 days of passes ≥ 10°. The values pass through the URL so the page stays shareable.

No JS? Fill the form by hand. The geolocation button needs JavaScript.